Home   Weather   Saskatoon   Past weeks

Flag for Canada Past Weather in Saskatoon, Saskatchewan, Canada — Yesterday and Last 2 Weeks

Now
72 °F

Scattered clouds.


Feels Like: 77 °F
Forecast: N/A
Wind: 13 mph from East

Location: Saskatoon Weather Station

Current Time: Aug 30, 2016 at 3:02:45 PM

Latest Report: Aug 30, 2016 at 2:00 PM


Visibility: 15 mi

Pressure: 30.28 "Hg

Humidity: 41%

Dew Point: 46 °F

Location of SaskatoonLocation

Past Weather in Saskatoon — Graph

°F

Saskatoon Temperature Yesterday

Maximum temperature yesterday: 68 °F (at 5:00 PM)
Minimum temperature yesterday: 36 °F (at 6:00 AM)
Average temperature yesterday: 53 °F

High & Low Weather Summary for the Past Weeks

 TemperatureHumidityPressure
High84 °F (Aug 16, 4:00 PM)100% (Aug 16, 1:00 AM)30.36 "Hg (Aug 16, 1:00 AM)
Low36 °F (Aug 29, 6:00 AM)27% (Aug 22, 2:00 PM)29.50 "Hg (Aug 22, 7:00 AM)
Average61 °F74%29.98 "Hg
* Reported Aug 15 2:00 PM — Aug 30 2:00 PM, Saskatoon, Weather by CustomWeather, © 2016

Note: Actual official high and low records may vary slightly from our data, if they occured in-between our weather recording intervals... More about our weather records

Advertising

Saskatoon Weather History for the Previous 24 Hours

Scroll right to see more
 ConditionsComfort  
Time TempWeatherWind HumidityBarometerVisibility
2:00 PM
Tue, Aug 30
72 °FScattered clouds.13 mph41%30.28 "Hg15 mi
1:00 PM70 °FScattered clouds.13 mph40%30.29 "Hg15 mi
12:00 PM68 °FPassing clouds.14 mph43%30.30 "Hg15 mi
11:00 AM63 °FScattered clouds.12 mph52%30.32 "Hg15 mi
10:00 AM61 °FBroken clouds.12 mph55%30.31 "Hg15 mi
9:00 AM57 °FBroken clouds.9 mph72%30.30 "Hg15 mi
8:00 AM50 °FPartly sunny.7 mph94%30.31 "Hg15 mi
7:00 AM46 °FBroken clouds.9 mph100%30.29 "Hg15 mi
6:00 AM46 °FPartly cloudy.7 mph93%30.31 "Hg15 mi
5:00 AM45 °FPassing clouds.7 mph100%30.31 "Hg15 mi
4:00 AM46 °FClear.7 mph93%30.32 "Hg15 mi
3:00 AM46 °FPassing clouds.5 mph93%30.30 "Hg15 mi
2:00 AM46 °FPassing clouds.6 mph87%30.31 "Hg15 mi
1:00 AM48 °FClear.6 mph87%30.30 "Hg15 mi
12:00 AM48 °FClear.7 mph82%30.29 "Hg15 mi
11:00 PM
Mon, Aug 29
50 °FClear.7 mph76%30.27 "Hg15 mi
10:00 PM54 °FClear.7 mph67%30.28 "Hg15 mi
9:00 PM57 °FPassing clouds.3 mph59%30.28 "Hg15 mi
8:00 PM63 °FPassing clouds.5 mph45%30.28 "Hg15 mi
7:00 PM66 °FScattered clouds.2 mph43%30.28 "Hg15 mi
6:00 PM66 °FPartly sunny.5 mph43%30.28 "Hg15 mi
5:00 PM68 °FPartly sunny.5 mph40%30.28 "Hg15 mi
4:00 PM66 °FPartly sunny.3 mph43%30.28 "Hg15 mi
3:00 PM66 °FPartly sunny.8 mph37%30.30 "Hg15 mi
Weather by CustomWeather, © 2016

See weather overviewHow to use our weather pages